#timestamp,LO_Frequency,Hit,StdDev 
1710496815.2,286047000.2,N
1710496835.1,286047002.3,N
1710496836.0,286047002.3,N
1710496855.8,286047002.8,N
1710496875.6,286047002.3,N
1710496895.5,286047002.4,N
1710496915.3,286047002.5,N
1710496935.2,286047002.6,N
1710496955.9,286047000.0,N
1710496975.7,286047001.2,N
1710496995.6,286047000.7,N
1710497015.4,286047000.9,N
1710497035.2,286046998.4,N
1710497055.1,286046998.4,N
1710497056.0,286046998.4,N
1710497075.8,286047000.2,N
1710497095.7,286047000.2,N
1710497115.5,286047000.1,N
1710497135.3,286047001.7,N
1710497155.2,286047004.3,N
1710497175.0,286047002.8,N
1710497175.9,286047002.8,N
1710497195.8,286047002.7,N
1710497215.6,286047002.8,N
1710497235.4,286047002.5,N
1710497255.3,286047001.6,N
1710497275.1,286047002.1,N
1710497295.9,286047002.4,N
1710497315.7,286046999.8,N
1710497335.5,286047000.3,N
1710497355.4,286047002.4,N
1710497375.2,286047001.3,N
1710497395.1,286047002.0,N
1710497396.0,286047002.0,N
1710497415.8,286047001.4,N
1710497435.8,286047001.8,N
1710497455.7,286047002.4,N
1710497475.5,286047002.6,N
1710497495.3,286047002.2,N
1710497515.2,286046999.7,N
1710497535.9,286047001.6,N
1710497555.7,286047004.1,N
1710497575.6,286047003.7,N
1710497595.4,286047003.7,N
1710497615.3,286047002.7,N
1710497635.1,286047002.7,N
1710497636.0,286047002.7,N
1710497655.8,286047002.7,N
1710497675.7,286046999.8,N
1710497695.5,286047002.8,N
1710497715.4,286047001.6,N
1710497735.2,286047002.6,N
1710497755.0,286047001.9,N
1710497755.9,286047001.9,N
1710497775.8,286047001.8,N
1710497795.6,286047001.7,N
1710497815.4,286046999.7,N
1710497835.3,286047000.1,N
1710497855.1,286047002.3,N
1710497875.9,286046999.7,N
1710497895.7,286046999.7,N
1710497915.5,286047002.2,N
1710497935.4,286047002.2,N
1710497955.2,286047001.8,N
1710497975.1,286047004.3,Y
1710497976.0,286047004.3,P
1710497995.8,286047000.1,N
1710498015.6,286047000.9,N
1710498035.5,286047000.9,N
1710498055.3,286047000.9,N
1710498075.1,286046999.7,N
1710498095.9,286047000.3,N
1710498115.7,286047002.6,N
1710498135.6,286047000.6,N
1710498155.4,286047001.2,N
1710498175.2,286046999.4,N
1710498195.1,286046998.2,N
1710498196.0,286046998.2,N
1710498215.8,286047001.0,N
1710498235.7,286046998.3,N
1710498255.5,286046998.6,N
1710498275.3,286046999.2,N
1710498295.2,286046996.5,N
1710498315.0,286046998.7,N
1710498315.9,286046998.7,N
1710498335.7,286046998.3,N
1710498355.6,286046998.2,N
1710498375.4,286047000.6,N
1710498395.3,286046998.1,N
1710498415.1,286046999.4,N
1710498435.8,286046999.5,N
1710498455.7,286046998.3,N
1710498475.5,286046998.4,N
1710498495.4,286046998.1,N
1710498515.2,286046998.3,N
1710498535.0,286047000.4,N
1710498535.9,286047000.4,N
1710498555.8,286047000.6,N
1710498575.6,286047001.1,N
1710498595.5,286047000.7,N
1710498615.3,286047001.0,N
1710498635.1,286047002.3,N
1710498655.9,286047000.4,N
1710498675.7,286047000.6,N
1710498695.5,286047000.4,N
1710498715.4,286046999.9,N
1710498735.2,286046999.9,N
1710498755.1,286047002.4,N
1710498756.0,286047002.4,N
1710498775.8,286047002.6,N
1710498795.6,286047001.8,N
1710498815.5,286047002.2,N
1710498835.3,286047002.1,N
1710498855.2,286047002.6,N
1710498875.9,286047002.0,N
1710498895.7,286047000.2,N
1710498915.6,286047000.4,N
1710498935.4,286046999.1,N
1710498955.2,286046999.5,N
1710498975.1,286046999.6,N
1710498976.0,286046999.6,N
1710498995.8,286046997.5,N
1710499015.7,286046998.9,N
1710499035.5,286046998.2,N
1710499055.3,286046999.5,N
1710499075.2,286046999.1,N
1710499095.0,286046998.5,N
1710499095.9,286046998.5,N
1710499115.7,286046998.2,N
1710499135.6,286046998.3,N
1710499155.4,286046998.7,N
1710499175.3,286046999.3,N
1710499195.1,286046998.1,N
1710499196.0,286046998.1,N
1710499215.8,286047000.2,N
1710499235.7,286047000.1,N
1710499255.5,286047000.6,N
1710499275.3,286047001.2,N
1710499295.2,286047000.8,N
1710499315.0,286047000.7,N
1710499315.9,286047000.7,N
1710499335.8,286046999.4,N
1710499355.6,286046999.1,N
1710499375.4,286046996.6,N
1710499395.3,286046996.5,Y
1710499415.1,286046999.0,P
1710499435.9,286046998.1,P
1710499455.7,286047000.0,N
1710499475.5,286047000.0,N
1710499495.4,286047002.8,Y
1710499515.2,286047000.6,P
1710499535.0,286047000.1,N
1710499536.0,286047000.1,N
1710499555.8,286047002.0,Y
1710499575.6,286047001.9,P
1710499595.5,286047002.1,N
1710499615.3,286047002.3,N
1710499635.1,286047002.5,N
1710499655.9,286047001.4,N
1710499675.7,286047001.4,N
1710499695.6,286047001.9,N
1710499715.4,286047002.5,Y
1710499735.2,286046998.7,P
1710499755.1,286046999.0,N
1710499756.0,286046999.0,N
1710499775.8,286046998.2,N
1710499795.6,286047001.0,N
1710499815.5,286046999.8,N
1710499835.3,286047000.2,N
1710499855.2,286047002.7,N
1710499875.9,286047000.2,N
1710499895.7,286047002.0,N
1710499915.6,286047002.6,N
1710499935.4,286047004.4,N
1710499955.2,286046999.7,N
1710499975.1,286047000.6,N
1710499976.0,286047000.6,N
1710499995.8,286047000.0,N
1710500015.7,286047000.4,N
1710500035.5,286047000.6,N
1710500055.3,286046999.7,N
1710500075.2,286047002.6,N
1710500095.0,286047001.9,N
1710500095.9,286047001.9,N
1710500115.8,286046999.7,N
1710500135.6,286047002.6,N
1710500155.4,286047000.7,N
1710500175.3,286046998.5,N
1710500195.1,286046998.5,N
1710500215.8,286046999.3,N
1710500235.7,286046997.1,N
1710500255.5,286046999.1,N
1710500275.4,286046997.1,N
1710500295.2,286046999.6,N
1710500315.0,286046999.3,N
1710500315.9,286046999.3,N
1710500335.8,286046998.9,N
1710500355.6,286047001.2,N
1710500375.5,286046998.4,N
1710500395.3,286046998.1,N
